Preview of NWS' New Version of Forecast
This preview is not operational and should not be used for support decisions.

Regional Weather Roundup (RWR)

Issued by National Weather Service (NWS)

                            
000
ASCA42 TJSJ 221710
RWRPR 
PUERTO RICO/U.S. VIRGIN ISLANDS HOURLY WEATHER ROUNDUP
NATIONAL WEATHER SERVICE SAN JUAN PR
100 PM AST FRI FEB 22 2019

PRZ001>002-007>008-010-221800-
PUERTO RICO
  
CITY           SKY/WX    TMP DP  RH WIND       PRES   REMARKS
SAN JUAN LMM   MOSUNNY   81  72  74 E21       30.13F                  
AGUADILLA      PTSUNNY   82 N/A N/A E22       30.14F                  
CEIBA          CLOUDY    81  72  74 E12G20    30.15F                  
$$

VIZ001>002-221800-
U.S. VIRGIN ISLANDS
  
CITY           SKY/WX    TMP DP  RH WIND       PRES   REMARKS
CHARLOTTE AMA  MOSUNNY   84  68  58 E18G24    30.13F                  
CHRISTIANSTED  PTSUNNY   81  72  74 E16       30.13F                  
$$

HOURLY WEATHER ROUNDUP FOR THE NEWS MEDIA
  
CITY           SKY/WX    TMP DP  RH WIND       PRES   REMARKS
ORLANDO        FAIR      84  64  50 S8        30.19F                  
NEW YORK       PTSUNNY   43  24  47 N15       30.38F                  
NEWARK         CLOUDY    43  21  41 NW14      30.37F                  
CHICAGO        FAIR      38  26  62 E7        30.43R WCI  33          
HARTFORD       FAIR      44  25  47 W13G20    30.30R                  
BOSTON         PTSUNNY   42  21  43 W12       30.31R                  
DALLAS         CLOUDY    49  47  93 NE6       30.04F FOG              
PHILADELPHIA   CLOUDY    45  23  42 N8        30.39S                  
LOS ANGELES    MOSUNNY   50  32  50 CALM      29.99R                  
WASHINGTON DC  FAIR      45  27  49 N8        30.40F